This is the latest recevied weather packets stored in our database for station/object SP4FDH-13. If no packets are shown the sender has not sent any weather packets the latest 10 day(s).
| Time | Temp. | Humidity | Pressure | Rain* | Wind** | Luminosity | Snow |
|---|---|---|---|---|---|---|---|
| 1777482306 | 10.56° C | 49% | 1026.3 hPa | - | - | - | - |
| 1777481730 | 10.56° C | 48% | 1026.2 hPa | - | - | - | - |
| 1777481155 | 10.56° C | 50% | 1026.1 hPa | - | - | - | - |
| 1777480580 | 10.56° C | 50% | 1026.3 hPa | - | - | - | - |
| 1777480004 | 10.56° C | 50% | 1026.3 hPa | - | - | - | - |
| 1777479429 | 10.56° C | 49% | 1026.1 hPa | - | - | - | - |
| 1777478854 | 10.56° C | 49% | 1026.2 hPa | - | - | - | - |
| 1777478280 | 11.11° C | 47% | 1026.2 hPa | - | - | - | - |
| 1777477705 | 11.67° C | 45% | 1026 hPa | - | - | - | - |
| 1777477129 | 11.67° C | 46% | 1026 hPa | - | - | - | - |
| 1777476554 | 11.67° C | 46% | 1026 hPa | - | - | - | - |
| 1777475978 | 11.67° C | 47% | 1026 hPa | - | - | - | - |
| 1777475403 | 11.11° C | 47% | 1026.1 hPa | - | - | - | - |
| 1777474828 | 11.67° C | 49% | 1026.2 hPa | - | - | - | - |
| 1777474253 | 11.67° C | 48% | 1026.2 hPa | - | - | - | - |
| 1777473677 | 11.67° C | 50% | 1026.3 hPa | - | - | - | - |
| 1777473101 | 11.11° C | 50% | 1026.4 hPa | - | - | - | - |
| 1777472526 | 11.67° C | 50% | 1026.4 hPa | - | - | - | - |
| 1777471951 | 12.22° C | 48% | 1026.3 hPa | - | - | - | - |
| 1777471374 | 11.67° C | 49% | 1026.4 hPa | - | - | - | - |
| 1777470798 | 11.67° C | 50% | 1026.4 hPa | - | - | - | - |
| 1777470221 | 11.11° C | 52% | 1026.6 hPa | - | - | - | - |
| 1777469645 | 11.11° C | 53% | 1026.6 hPa | - | - | - | - |
| 1777469069 | 11.67° C | 52% | 1026.5 hPa | - | - | - | - |
| 1777468493 | 11.11° C | 52% | 1026.5 hPa | - | - | - | - |
* Rain since midnight (hover to see other rain measurements)
** Current wind speed in m/s (hover to see current wind gust speed)